This is the latest recevied weather packets stored in our database for station/object HB9FHL-13. If no packets are shown the sender has not sent any weather packets the latest 10 day(s).
| Time | Temp. | Humidity | Pressure | Rain* | Wind** | Luminosity | Snow |
|---|---|---|---|---|---|---|---|
| 1777012396 | 12.78° C | - | 1019.6 hPa | 0 mm | - | - | - |
| 1777012096 | 12.78° C | - | 1024.4 hPa | 0 mm | - | - | - |
| 1777011795 | 12.22° C | - | 1021.1 hPa | 0 mm | - | - | - |
| 1777011495 | 12.78° C | - | 1018.2 hPa | 0 mm | - | - | - |
| 1777011194 | 12.22° C | - | 1023.5 hPa | 0 mm | - | - | - |
| 1777010894 | 12.22° C | - | 1018.8 hPa | 0 mm | - | - | - |
| 1777010593 | 11.67° C | - | 1023.6 hPa | 0 mm | - | - | - |
| 1777010293 | 12.22° C | - | 1020.3 hPa | 0 mm | - | - | - |
| 1777009992 | 11.11° C | - | 1020.3 hPa | 0 mm | - | - | - |
| 1777009692 | 11.11° C | - | 1020.6 hPa | 0 mm | - | - | - |
| 1777009391 | 10.56° C | - | 1022.1 hPa | 0 mm | - | - | - |
| 1777009091 | 11.11° C | - | 1018.6 hPa | 0 mm | - | - | - |
| 1777008792 | 11.11° C | - | 1021.4 hPa | 0 mm | - | - | - |
| 1777008490 | 11.11° C | - | 1023.5 hPa | 0 mm | - | - | - |
| 1777008189 | 11.67° C | - | 1020.3 hPa | 0 mm | - | - | - |
| 1777007889 | 11.11° C | - | 1027.2 hPa | 0 mm | - | - | - |
| 1777007588 | 11.11° C | - | 1024.9 hPa | 0 mm | - | - | - |
| 1777007288 | 10° C | - | 1021 hPa | 0 mm | - | - | - |
| 1777006987 | 11.11° C | - | 1018.7 hPa | 0 mm | - | - | - |
| 1777006687 | 10° C | - | 1024.2 hPa | 0 mm | - | - | - |
| 1777006386 | 10.56° C | - | 1021.5 hPa | 0 mm | - | - | - |
| 1777006086 | 10.56° C | - | 1021.2 hPa | 0 mm | - | - | - |
| 1777005785 | 10.56° C | - | 1025.1 hPa | 0 mm | - | - | - |
| 1777005485 | 10° C | - | 1021.8 hPa | 0 mm | - | - | - |
| 1777005184 | 10.56° C | - | 1022.2 hPa | 0 mm | - | - | - |
* Rain since midnight (hover to see other rain measurements)
** Current wind speed in m/s (hover to see current wind gust speed)